BCS2FD LEVT-EDDP

Flight info

Callsign BCS2FD
Flight time N/A
Altitude 35000
Route PPN N995 LATEK DCT GONUP DCT TOU DCT GAI DCT MEN DCT NINUN DCT LATAM DCT ETREK DCT LTP DCT SOPLO DCT OMASI DCT KINNI DCT SOSAL DCT KORED DCT BERSU DCT DITON DCT LOKTA DCT ETAGO DCT IBAGA T435 PIBAD T954 GOXLI GOXLI1V
Aircraft A306/H-SDE3FGHIRWY/LB1

Departure

Time N/A
Airport Vitoria Airport (LEVT)

Arrival

Time 2026-05-03 21:01
Airport Leipzig/Halle Airport (EDDP)
Time Latitude Longitude Altitude Speed Heading
2026-05-03 20:15 47.70387 8.44174 34067 ft 486 kts 32°
2026-05-03 20:15 47.75066 8.48719 34067 ft 486 kts 32°
2026-05-03 20:16 47.80750 8.54257 34057 ft 486 kts 32°
2026-05-03 20:16 47.86388 8.59763 34050 ft 486 kts 32°
2026-05-03 20:17 47.92066 8.65324 34043 ft 486 kts 32°
2026-05-03 20:17 47.97678 8.70834 34048 ft 485 kts 32°
2026-05-03 20:18 48.03314 8.76382 34039 ft 485 kts 32°
2026-05-03 20:18 48.08930 8.81926 34047 ft 485 kts 32°
2026-05-03 20:19 48.14538 8.87475 34034 ft 485 kts 33°
2026-05-03 20:19 48.20181 8.93074 34031 ft 484 kts 33°
2026-05-03 20:20 48.25769 8.98635 34026 ft 484 kts 33°
2026-05-03 20:20 48.31407 9.04260 34026 ft 484 kts 33°
2026-05-03 20:21 48.37007 9.09861 34022 ft 484 kts 33°
2026-05-03 20:21 48.42628 9.15501 34021 ft 484 kts 33°
2026-05-03 20:22 48.48195 9.21100 34020 ft 484 kts 33°
2026-05-03 20:22 48.53781 9.26733 34019 ft 484 kts 33°
2026-05-03 20:23 48.59414 9.32430 34018 ft 484 kts 33°
2026-05-03 20:23 48.64956 9.38050 34020 ft 484 kts 34°
2026-05-03 20:24 48.70563 9.43750 34020 ft 484 kts 34°
2026-05-03 20:24 48.76133 9.49501 34022 ft 484 kts 34°
2026-05-03 20:25 48.81672 9.55370 34015 ft 485 kts 35°
2026-05-03 20:25 48.87208 9.61268 34016 ft 484 kts 35°
2026-05-03 20:26 48.92695 9.67115 34016 ft 485 kts 35°
2026-05-03 20:26 48.98202 9.72990 34020 ft 485 kts 35°
2026-05-03 20:27 49.03724 9.78893 34022 ft 485 kts 35°
2026-05-03 20:27 49.09265 9.84835 34019 ft 486 kts 35°
2026-05-03 20:28 49.14790 9.90775 34021 ft 486 kts 35°
2026-05-03 20:28 49.20335 9.96755 34021 ft 486 kts 35°
2026-05-03 20:29 49.25865 10.02735 33999 ft 486 kts 35°
2026-05-03 20:29 49.31355 10.08688 33994 ft 486 kts 35°
2026-05-03 20:30 49.36870 10.14686 33998 ft 486 kts 36°
2026-05-03 20:30 49.42373 10.20687 33842 ft 487 kts 36°
2026-05-03 20:30 49.45159 10.23733 33563 ft 487 kts 36°
2026-05-03 20:31 49.47927 10.26763 33257 ft 488 kts 36°
2026-05-03 20:31 49.50687 10.29789 32780 ft 488 kts 36°
2026-05-03 20:31 49.53441 10.32811 32303 ft 489 kts 35°
2026-05-03 20:31 49.56224 10.35870 31828 ft 490 kts 35°
2026-05-03 20:32 49.59004 10.38929 31378 ft 492 kts 35°
2026-05-03 20:32 49.61751 10.41957 30933 ft 493 kts 35°
2026-05-03 20:32 49.64592 10.45092 30481 ft 494 kts 35°
2026-05-03 20:32 49.67394 10.48191 30037 ft 495 kts 35°
2026-05-03 20:33 49.70189 10.51284 29539 ft 496 kts 35°
2026-05-03 20:33 49.72955 10.54335 29055 ft 497 kts 34°
2026-05-03 20:33 49.75974 10.57100 28553 ft 497 kts 28°
2026-05-03 20:33 49.78988 10.59620 28074 ft 498 kts 27°
2026-05-03 20:34 49.82052 10.62102 27610 ft 499 kts 26°
2026-05-03 20:34 49.85137 10.64559 27143 ft 499 kts 26°
2026-05-03 20:34 49.88224 10.67003 26689 ft 500 kts 26°
2026-05-03 20:34 49.91306 10.69444 26245 ft 500 kts 26°
2026-05-03 20:35 49.94400 10.71901 25820 ft 500 kts 26°
2026-05-03 20:35 49.97503 10.74376 25400 ft 497 kts 26°
2026-05-03 20:35 50.00579 10.76839 24977 ft 494 kts 26°
2026-05-03 20:35 50.03590 10.79256 24579 ft 491 kts 26°
2026-05-03 20:36 50.06614 10.81687 24173 ft 488 kts 26°
2026-05-03 20:36 50.09667 10.83984 23773 ft 484 kts 23°
2026-05-03 20:36 50.12733 10.86064 23338 ft 481 kts 21°
2026-05-03 20:36 50.15804 10.88043 22863 ft 478 kts 21°
2026-05-03 20:37 50.18872 10.89986 22387 ft 475 kts 20°
2026-05-03 20:37 50.21949 10.91942 21910 ft 473 kts 21°
2026-05-03 20:37 50.24984 10.93892 21447 ft 470 kts 21°
2026-05-03 20:37 50.27995 10.95847 21000 ft 467 kts 21°
2026-05-03 20:38 50.30986 10.97807 20554 ft 465 kts 21°
2026-05-03 20:38 50.33945 10.99756 20094 ft 462 kts 21°
2026-05-03 20:38 50.36891 11.01703 19669 ft 460 kts 21°
2026-05-03 20:38 50.39842 11.03683 19235 ft 457 kts 22°
2026-05-03 20:39 50.42732 11.05712 18819 ft 455 kts 23°
2026-05-03 20:39 50.45593 11.07775 18400 ft 453 kts 23°
2026-05-03 20:39 50.48450 11.09857 17938 ft 451 kts 24°
2026-05-03 20:39 50.51311 11.11947 17472 ft 449 kts 24°
2026-05-03 20:40 50.54143 11.14012 16994 ft 446 kts 24°
2026-05-03 20:40 50.56916 11.16030 16550 ft 443 kts 24°
2026-05-03 20:40 50.59704 11.18054 16130 ft 441 kts 24°
2026-05-03 20:40 50.62481 11.20070 15986 ft 439 kts 23°
2026-05-03 20:41 50.65266 11.22087 15974 ft 439 kts 24°
2026-05-03 20:41 50.68031 11.24095 15680 ft 434 kts 24°
2026-05-03 20:41 50.70751 11.26075 15252 ft 434 kts 24°
2026-05-03 20:41 50.73498 11.28078 14818 ft 435 kts 24°
2026-05-03 20:42 50.76255 11.30088 14472 ft 433 kts 24°
2026-05-03 20:42 50.78966 11.32069 14117 ft 432 kts 24°
2026-05-03 20:42 50.81691 11.34064 13762 ft 430 kts 24°
2026-05-03 20:42 50.84400 11.36050 13360 ft 429 kts 24°
2026-05-03 20:43 50.87108 11.38036 12977 ft 427 kts 24°
2026-05-03 20:43 50.89786 11.40004 12600 ft 424 kts 24°
2026-05-03 20:43 50.92466 11.41975 12214 ft 422 kts 25°
2026-05-03 20:43 50.95121 11.43931 11856 ft 420 kts 25°
2026-05-03 20:44 50.97767 11.45884 11477 ft 418 kts 25°
2026-05-03 20:44 51.00356 11.47796 11125 ft 415 kts 25°
2026-05-03 20:44 51.02992 11.49744 10755 ft 414 kts 25°
2026-05-03 20:44 51.05577 11.51658 10404 ft 409 kts 26°
2026-05-03 20:45 51.08113 11.53537 10072 ft 395 kts 26°
2026-05-03 20:45 51.10439 11.55665 9942 ft 372 kts 40°
2026-05-03 20:45 51.12091 11.58614 9946 ft 345 kts 60°
2026-05-03 20:45 51.13225 11.61806 9942 ft 325 kts 66°
2026-05-03 20:46 51.14240 11.64923 9937 ft 309 kts 67°
2026-05-03 20:46 51.15211 11.67937 9850 ft 305 kts 67°
2026-05-03 20:46 51.16182 11.70946 9570 ft 306 kts 66°
2026-05-03 20:46 51.17152 11.73938 9297 ft 305 kts 66°
2026-05-03 20:47 51.18129 11.76946 9010 ft 304 kts 66°
2026-05-03 20:47 51.19089 11.79900 8729 ft 303 kts 66°
2026-05-03 20:47 51.20068 11.82912 8443 ft 302 kts 65°
2026-05-03 20:47 51.21030 11.85873 8165 ft 301 kts 65°
2026-05-03 20:48 51.21993 11.88837 7904 ft 299 kts 65°
2026-05-03 20:48 51.22837 11.91815 7611 ft 296 kts 74°
2026-05-03 20:48 51.23236 11.94891 7348 ft 291 kts 86°
2026-05-03 20:48 51.23420 11.98121 7081 ft 290 kts 88°
2026-05-03 20:49 51.23566 12.01327 6813 ft 289 kts 88°
2026-05-03 20:49 51.23710 12.04511 6549 ft 288 kts 88°
2026-05-03 20:49 51.23856 12.07673 6288 ft 287 kts 88°
2026-05-03 20:49 51.24005 12.10841 6005 ft 286 kts 87°
2026-05-03 20:50 51.24155 12.14035 5721 ft 285 kts 87°
2026-05-03 20:50 51.24304 12.17183 5445 ft 284 kts 87°
2026-05-03 20:50 51.24450 12.20277 5170 ft 278 kts 86°
2026-05-03 20:50 51.24594 12.23338 4995 ft 270 kts 86°
2026-05-03 20:51 51.24733 12.26302 4986 ft 268 kts 86°
2026-05-03 20:51 51.24871 12.29279 4992 ft 269 kts 86°
2026-05-03 20:51 51.25009 12.32262 4932 ft 267 kts 86°
2026-05-03 20:51 51.25142 12.35113 4797 ft 258 kts 85°
2026-05-03 20:52 51.25450 12.37946 4647 ft 249 kts 73°
2026-05-03 20:52 51.26053 12.40523 4534 ft 247 kts 67°
2026-05-03 20:52 51.26725 12.43015 4404 ft 248 kts 66°
2026-05-03 20:52 51.27418 12.45546 4274 ft 248 kts 66°
2026-05-03 20:53 51.28110 12.48082 4149 ft 247 kts 66°
2026-05-03 20:53 51.28786 12.50573 4027 ft 247 kts 65°
2026-05-03 20:53 51.29476 12.53123 3903 ft 247 kts 65°
2026-05-03 20:53 51.30148 12.55612 3783 ft 247 kts 65°
2026-05-03 20:54 51.30861 12.58096 3654 ft 246 kts 58°
2026-05-03 20:54 51.33350 12.61254 3374 ft 222 kts
2026-05-03 20:54 51.34822 12.61197 3287 ft 206 kts 343°
2026-05-03 20:55 51.36178 12.60540 3185 ft 203 kts 337°
2026-05-03 20:55 51.37517 12.59782 3072 ft 204 kts 336°
2026-05-03 20:55 51.38850 12.59026 2994 ft 203 kts 336°
2026-05-03 20:55 51.40183 12.58282 2986 ft 203 kts 336°
2026-05-03 20:56 51.41461 12.57367 2978 ft 199 kts 319°
2026-05-03 20:56 51.42209 12.55636 2981 ft 187 kts 290°
2026-05-03 20:56 51.42545 12.53712 2978 ft 174 kts 281°
2026-05-03 20:56 51.42626 12.51795 2980 ft 169 kts 269°
2026-05-03 20:57 51.42550 12.50004 2990 ft 154 kts 266°
2026-05-03 20:57 51.42464 12.48319 2988 ft 150 kts 266°
2026-05-03 20:57 51.42385 12.46646 2986 ft 150 kts 266°
2026-05-03 20:57 51.42310 12.44975 2852 ft 149 kts 267°
2026-05-03 20:58 51.42235 12.43342 2667 ft 145 kts 267°
2026-05-03 20:58 51.42158 12.41733 2460 ft 145 kts 268°
2026-05-03 20:58 51.42083 12.40113 2255 ft 145 kts 268°
2026-05-03 20:58 51.42007 12.38511 2063 ft 141 kts 268°
2026-05-03 20:59 51.41936 12.37005 1868 ft 132 kts 268°
2026-05-03 20:59 51.41869 12.35568 1716 ft 131 kts 268°
2026-05-03 20:59 51.41801 12.34109 1528 ft 129 kts 268°
2026-05-03 20:59 51.41651 12.32731 1334 ft 124 kts 259°
2026-05-03 21:00 51.41580 12.31346 1164 ft 130 kts 272°
2026-05-03 21:00 51.41589 12.30876 1106 ft 130 kts 267°
2026-05-03 21:00 51.41455 12.28455 854 ft 134 kts 270°
2026-05-03 21:00 51.41472 12.26915 697 ft 141 kts 265°
2026-05-03 21:01 51.41385 12.25334 525 ft 140 kts 267°
2026-05-03 21:01 51.41322 12.23932 474 ft 91 kts 263°
2026-05-03 21:01 51.41294 12.23315 475 ft 37 kts 263°
2026-05-03 21:01 51.41269 12.22916 469 ft 33 kts 255°
2026-05-03 21:02 51.41194 12.22597 468 ft 28 kts 241°
2026-05-03 21:02 51.41118 12.22515 466 ft 8 kts 136°
2026-05-03 21:02 51.41108 12.22632 467 ft 11 kts 97°
2026-05-03 21:02 51.41104 12.22794 470 ft 19 kts 94°
2026-05-03 21:03 51.41111 12.22957 474 ft 13 kts 79°
2026-05-03 21:03 51.41114 12.23071 476 ft 18 kts 87°
2026-05-03 21:03 51.41129 12.23389 481 ft 25 kts 81°
2026-05-03 21:03 51.41139 12.23699 479 ft 31 kts 85°
2026-05-03 21:04 51.41162 12.24069 473 ft 27 kts 83°
2026-05-03 21:04 51.41179 12.24360 477 ft 18 kts 88°
2026-05-03 21:04 51.41181 12.24505 480 ft 22 kts 89°
2026-05-03 21:04 51.41197 12.24864 482 ft 25 kts 86°
2026-05-03 21:05 51.41200 12.24944 481 ft 8 kts 86°
2026-05-03 21:05 51.41204 12.25041 478 ft 10 kts 86°
2026-05-03 21:05 51.41208 12.25159 479 ft 12 kts 86°
2026-05-03 21:05 51.41219 12.25289 471 ft 12 kts 88°
2026-05-03 21:06 51.41192 12.25360 477 ft 3 kts 155°
2026-05-03 21:06 51.41177 12.25365 479 ft 4 kts 175°
2026-05-03 21:06 51.41140 12.25316 475 ft 9 kts 250°
2026-05-03 21:06 51.41136 12.25255 473 ft 4 kts 258°
2026-05-03 21:07 51.41131 12.25214 471 ft 3 kts 261°
2026-05-03 21:07 51.41128 12.25183 474 ft 2 kts 261°
2026-05-03 21:07 51.41126 12.25159 472 ft 2 kts 261°
2026-05-03 21:07 51.41122 12.25119 478 ft 9 kts 261°
2026-05-03 21:08 51.41113 12.24963 478 ft 18 kts 266°
2026-05-03 21:08 51.41103 12.24736 472 ft 23 kts 266°
2026-05-03 21:08 51.41089 12.24453 473 ft 22 kts 251°
2026-05-03 21:08 51.41082 12.24254 477 ft 16 kts 266°
2026-05-03 21:09 51.41026 12.24132 473 ft 13 kts 196°
2026-05-03 21:09 51.40956 12.24136 470 ft 7 kts 181°
2026-05-03 21:09 51.40935 12.24114 467 ft 1 kts 240°
2026-05-03 21:09 51.40927 12.24085 468 ft 5 kts 250°
2026-05-03 21:10 51.40922 12.24034 471 ft 2 kts 263°
2026-05-03 21:10 51.40921 12.24023 472 ft 0 kts 263°
2026-05-03 21:11 51.40921 12.24024 472 ft 0 kts 263°